Date String (YYYY-MM-DD hh:mm:ss) UTC,Instrument flags,absolute air pressure of the measurement (hPa),sample flow rate (lpm),inlet stack bypass flow (lpm),air temperature of the measurement (°C),ambient temperature measured by the external sensor (°C),aerosol sample conditioner tube jacket temperature (°C),OPC LED temperature (°C),internal box temperature (°C),relative humidity of the measurement (%),span deviation,mass concentration of particles derived from Lorenz-Mie calculation of OPC scattering (μg/m³),mass concentration of particles derived from Lorenz-Mie calculation of OPC scattering (μg/m³),mass concentration of particles derived from Lorenz-Mie calculation of OPC scattering (μg/m³)
DateTimeUTC,F1_M11,P_M11,Q1_M11,Q2_M11,T1_M11,T2_M11,T3_M11,T4_M11,T5_M11,U1_M11,ZSPAN_M11,X2_M11,X0_M11,X1_M11
2024-06-07 11:00:00,SystemResetWarning,0827.4,4.98,000.00,031.0,028.7,000.0,039.5,031.9,018.7,0000.0,0004.34,0016.77,0002.87
2024-06-07 11:01:00,SystemResetWarning,0827.4,5.02,000.00,030.4,026.6,000.0,039.5,030.9,019.2,0000.0,0004.33,0017.48,0002.88
2024-06-07 11:02:00,SystemResetWarning,0827.4,5.00,000.00,030.1,026.7,000.0,039.4,030.7,019.4,0000.0,0004.33,0017.07,0002.91
2024-06-07 11:03:00,SystemResetWarning,0827.4,4.99,000.00,030.0,027.1,000.0,039.2,030.9,019.5,0000.0,0004.37,0017.55,0002.92
2024-06-07 11:04:00,SystemResetWarning,0827.5,5.01,000.00,030.0,027.5,000.0,039.1,031.2,019.5,0000.0,0004.44,0016.89,0002.96
2024-06-07 11:05:00,SystemResetWarning,0827.5,5.01,000.00,030.0,027.9,000.0,039.0,031.4,019.5,0000.0,0004.60,0017.87,0003.02
2024-06-07 11:06:00,SystemResetWarning,0827.6,4.99,000.00,030.0,028.3,000.0,038.9,031.5,019.4,0000.0,0004.62,0018.81,0003.03
2024-06-07 11:07:00,SystemResetWarning,0827.6,4.99,000.00,030.1,028.5,000.0,038.8,031.6,019.4,0000.0,0004.62,0019.89,0003.04
2024-06-07 11:08:00,SystemResetWarning,0827.5,5.00,000.00,030.1,028.8,000.0,038.8,031.7,019.5,0000.0,0004.69,0020.30,0003.07
2024-06-07 11:09:00,SystemResetWarning,0827.5,5.00,000.00,030.1,028.9,000.0,038.7,031.7,019.6,0000.0,0004.75,0020.57,0003.09
2024-06-07 11:10:00,SystemResetWarning,0827.5,5.00,000.00,030.1,029.1,000.0,038.7,031.8,019.8,0000.0,0004.72,0022.43,0003.09
2024-06-07 11:11:00,SystemResetWarning,0827.5,5.01,000.00,030.2,029.2,000.0,038.7,031.8,019.7,0000.0,0004.72,0022.40,0003.10
2024-06-07 11:12:00,SystemResetWarning,0827.5,5.00,000.00,030.2,029.3,000.0,038.7,031.9,019.6,0000.0,0004.74,0021.91,0003.11
2024-06-07 11:13:00,SystemResetWarning,0827.5,5.00,000.00,030.2,029.4,000.0,038.7,031.9,019.7,0000.0,0004.73,0021.88,0003.11
2024-06-07 11:14:00,SystemResetWarning,0827.5,5.00,000.00,030.3,029.5,000.0,038.7,032.0,019.7,0000.0,0004.69,0021.20,0003.10
2024-06-07 11:15:00,SystemResetWarning,0827.5,5.00,000.00,030.3,029.6,000.0,038.7,032.0,019.7,0000.0,0004.66,0021.62,0003.09
2024-06-07 11:16:00,SystemResetWarning,0827.9,5.00,000.00,030.3,029.6,000.0,038.7,032.0,019.6,0000.0,0004.58,0021.10,0003.08
2024-06-07 11:17:00,SystemResetWarning,0827.7,4.99,000.00,030.4,029.7,000.0,038.7,032.1,019.5,0000.0,0004.56,0020.36,0003.09
2024-06-07 11:18:00,SystemResetWarning,0827.4,5.00,000.00,030.4,029.7,000.0,038.7,032.1,019.5,0000.0,0004.59,0020.44,0003.11
2024-06-07 11:19:00,SystemResetWarning,0827.4,5.00,000.00,030.4,029.8,000.0,038.7,032.1,019.5,0000.0,0004.61,0020.51,0003.12
2024-06-07 11:20:00,SystemResetWarning,0827.4,5.00,000.00,030.4,029.8,000.0,038.8,032.1,019.5,0000.0,0004.64,0020.44,0003.13
2024-06-07 11:21:00,SystemResetWarning,0827.4,4.99,000.00,030.5,029.8,000.0,038.8,032.2,019.5,0000.0,0004.67,0018.97,0003.14
2024-06-07 11:22:00,SystemResetWarning,0827.4,5.00,000.00,030.5,029.9,000.0,038.8,032.2,019.5,0000.0,0004.67,0018.34,0003.14
2024-06-07 11:23:00,SystemResetWarning,0827.4,5.01,000.00,030.5,029.9,000.0,038.8,032.2,019.4,0000.0,0004.71,0017.69,0003.14
2024-06-07 11:24:00,SystemResetWarning,0827.4,5.01,000.00,030.5,029.9,000.0,038.8,032.2,019.4,0000.0,0004.74,0017.01,0003.16
2024-06-07 11:25:00,SystemResetWarning,0827.4,5.00,000.00,030.5,029.9,000.0,038.8,032.3,019.4,0000.0,0004.79,0016.27,0003.17
2024-06-07 11:26:00,SystemResetWarning,0827.6,4.99,000.00,030.6,029.9,000.0,038.9,032.3,019.3,0000.0,0004.82,0016.12,0003.18
2024-06-07 11:27:00,SystemResetWarning,0827.8,5.00,000.00,030.6,029.9,000.0,038.9,032.3,019.4,0000.0,0004.82,0017.62,0003.18
2024-06-07 11:28:00,SystemResetWarning,0827.7,5.00,000.00,030.6,029.9,000.0,038.9,032.3,019.4,0000.0,0004.86,0018.84,0003.16
2024-06-07 11:29:00,SystemResetWarning,0827.8,5.01,000.00,030.6,029.9,000.0,038.9,032.2,019.0,0000.0,0004.84,0018.36,0003.15
2024-06-07 11:30:00,SystemResetWarning,0827.6,5.02,000.00,030.6,030.0,000.0,038.9,032.3,018.9,0000.0,0004.78,0019.33,0003.14
2024-06-07 11:31:00,SystemResetWarning,0827.7,4.98,000.00,030.6,030.0,000.0,038.9,032.3,018.8,0000.0,0004.73,0019.63,0003.13
2024-06-07 11:32:00,SystemResetWarning,0827.7,4.99,000.00,030.6,030.0,000.0,038.9,032.3,018.7,0000.0,0004.66,0019.38,0003.11
2024-06-07 11:33:00,SystemResetWarning,0827.9,5.00,000.00,030.6,030.0,000.0,038.9,032.3,018.7,0000.0,0004.63,0018.30,0003.10
2024-06-07 11:34:00,SystemResetWarning,0827.8,5.00,000.00,030.7,030.0,000.0,038.9,032.3,018.6,0000.0,0004.52,0018.74,0003.09
2024-06-07 11:35:00,SystemResetWarning,0827.8,5.00,000.00,030.7,030.0,000.0,038.9,032.3,018.5,0000.0,0004.50,0019.76,0003.06
2024-06-07 11:36:00,SystemResetWarning,0827.5,5.01,000.00,030.7,030.0,000.0,039.0,032.3,018.5,0000.0,0004.45,0020.07,0003.03
2024-06-07 11:37:00,SystemResetWarning,0827.4,5.00,000.00,030.7,030.0,000.0,039.0,032.3,018.5,0000.0,0004.37,0020.83,0003.01
2024-06-07 11:38:00,SystemResetWarning,0827.4,5.00,000.00,030.7,030.0,000.0,039.0,032.3,018.5,0000.0,0004.37,0020.15,0002.99
2024-06-07 11:39:00,SystemResetWarning,0827.4,5.00,000.00,030.7,030.1,000.0,039.0,032.4,018.5,0000.0,0004.29,0020.85,0002.99
2024-06-07 11:40:00,SystemResetWarning,0827.4,5.00,000.00,030.7,030.1,000.0,039.0,032.4,018.5,0000.0,0004.28,0020.71,0002.98
2024-06-07 11:41:00,SystemResetWarning,0827.4,5.00,000.00,030.7,030.1,000.0,039.0,032.4,018.5,0000.0,0004.29,0018.97,0002.97
2024-06-07 11:42:00,SystemResetWarning,0827.4,4.99,000.00,030.8,030.1,000.0,039.1,032.5,018.5,0000.0,0004.26,0017.76,0002.97
2024-06-07 11:43:00,SystemResetWarning,0827.4,5.00,000.00,030.8,030.1,000.0,039.1,032.5,018.5,0000.0,0004.28,0018.33,0002.96
2024-06-07 11:44:00,SystemResetWarning,0827.4,5.00,000.00,030.8,030.1,000.0,039.1,032.5,018.5,0000.0,0004.32,0019.52,0002.96
2024-06-07 11:45:00,SystemResetWarning,0827.4,5.00,000.00,030.8,030.1,000.0,039.1,032.5,018.5,0000.0,0004.40,0019.31,0002.98
2024-06-07 11:46:00,SystemResetWarning,0827.4,5.01,000.00,030.8,030.1,000.0,039.1,032.5,018.6,0000.0,0004.46,0018.57,0003.01
2024-06-07 11:47:00,SystemResetWarning,0827.4,5.00,000.00,030.8,030.1,000.0,039.1,032.5,018.6,0000.0,0004.47,0018.14,0003.02
2024-06-07 11:48:00,SystemResetWarning,0827.4,5.00,000.00,030.8,030.1,000.0,039.1,032.5,018.6,0000.0,0004.48,0016.97,0003.04
2024-06-07 11:49:00,SystemResetWarning,0827.4,4.99,000.00,030.8,030.1,000.0,039.2,032.5,018.6,0000.0,0004.45,0015.61,0003.05
2024-06-07 11:50:00,SystemResetWarning,0827.4,4.99,000.00,030.8,030.1,000.0,039.2,032.5,018.5,0000.0,0004.50,0015.34,0003.08
2024-06-07 11:51:00,SystemResetWarning,0827.4,4.99,000.00,030.8,030.1,000.0,039.2,032.5,018.5,0000.0,0004.58,0015.91,0003.10
2024-06-07 11:52:00,SystemResetWarning,0827.4,5.00,000.00,030.8,030.1,000.0,039.2,032.5,018.5,0000.0,0004.64,0016.62,0003.11
2024-06-07 11:53:00,SystemResetWarning,0827.4,5.01,000.00,030.8,030.1,000.0,039.2,032.5,018.5,0000.0,0004.68,0016.87,0003.11
2024-06-07 11:54:00,SystemResetWarning,0827.4,5.01,000.00,030.8,030.1,000.0,039.2,032.5,018.4,0000.0,0004.73,0017.08,0003.13
2024-06-07 11:55:00,SystemResetWarning,0827.4,5.01,000.00,030.8,030.1,000.0,039.2,032.5,018.4,0000.0,0004.65,0017.59,0003.13
2024-06-07 11:56:00,SystemResetWarning,0827.4,5.01,000.00,030.9,030.1,000.0,039.2,032.5,018.4,0000.0,0004.58,0018.13,0003.12
2024-06-07 11:57:00,SystemResetWarning,0827.4,4.99,000.00,030.9,030.1,000.0,039.2,032.5,018.4,0000.0,0004.52,0018.23,0003.13
2024-06-07 11:58:00,SystemResetWarning,0827.4,4.99,000.00,030.9,030.1,000.0,039.2,032.5,018.4,0000.0,0004.52,0018.29,0003.13
2024-06-07 11:59:00,SystemResetWarning,0827.4,5.00,000.00,030.9,030.1,000.0,039.2,032.5,018.4,0000.0,0004.57,0018.87,0003.14
